DAL5647 KSAV-KBOS

Flight info

Callsign DAL5647
Flight time N/A
Altitude 33000
Route JROSS ELLDE Q97 PAACK JAMIE Q133 JFK ROBUC3
Aircraft B739/M-SDE2E3FGHIRWXY/LB1

Departure

Time 2026-05-01 15:14
Airport Savannah Hilton Head International Airport (KSAV)

Arrival

Time N/A
Airport Boston Logan International Airport (KBOS)
Time Latitude Longitude Altitude Speed Heading
2026-05-01 15:00 32.13511 -81.20737 56 ft 0 kts 356°
2026-05-01 15:06 32.13499 -81.20736 56 ft 2 kts 355°
2026-05-01 15:07 32.13487 -81.20735 56 ft 0 kts 356°
2026-05-01 15:07 32.13474 -81.20733 56 ft 2 kts 338°
2026-05-01 15:07 32.13461 -81.20724 56 ft 2 kts 317°
2026-05-01 15:07 32.13452 -81.20710 56 ft 2 kts 295°
2026-05-01 15:08 32.13448 -81.20693 56 ft 1 kts 275°
2026-05-01 15:08 32.13448 -81.20686 56 ft 1 kts 268°
2026-05-01 15:08 32.13448 -81.20683 56 ft 0 kts 270°
2026-05-01 15:09 32.13448 -81.20687 56 ft 2 kts 270°
2026-05-01 15:10 32.13448 -81.20717 56 ft 4 kts 270°
2026-05-01 15:10 32.13422 -81.20808 56 ft 11 kts 195°
2026-05-01 15:10 32.13331 -81.20814 56 ft 15 kts 181°
2026-05-01 15:11 32.13204 -81.20816 56 ft 20 kts 181°
2026-05-01 15:11 32.13041 -81.20898 56 ft 13 kts 269°
2026-05-01 15:11 32.13041 -81.21026 56 ft 17 kts 270°
2026-05-01 15:12 32.13042 -81.21180 56 ft 20 kts 271°
2026-05-01 15:12 32.13045 -81.21555 56 ft 22 kts 270°
2026-05-01 15:12 32.13048 -81.21728 56 ft 19 kts 271°
2026-05-01 15:13 32.12887 -81.21850 56 ft 9 kts 138°
2026-05-01 15:14 32.12867 -81.21131 56 ft 105 kts 91°
2026-05-01 15:14 32.12859 -81.20041 56 ft 161 kts 90°
2026-05-01 15:14 32.12841 -81.17319 1357 ft 165 kts 89°
2026-05-01 15:15 32.13113 -81.14566 2295 ft 186 kts 56°
2026-05-01 15:15 32.15442 -81.12718 3025 ft 218 kts 34°
2026-05-01 15:16 32.18070 -81.10447 3847 ft 250 kts 38°
2026-05-01 15:16 32.20962 -81.07841 4926 ft 271 kts 36°
2026-05-01 15:17 32.23998 -81.05143 6247 ft 280 kts 35°
2026-05-01 15:18 32.28769 -81.00888 8193 ft 293 kts 34°
2026-05-01 15:18 32.30385 -80.99439 8802 ft 297 kts 34°
2026-05-01 15:19 32.35468 -80.94900 10346 ft 321 kts 33°
2026-05-01 15:19 32.39206 -80.91563 10948 ft 352 kts 33°
2026-05-01 15:19 32.41209 -80.89771 11219 ft 368 kts 33°
2026-05-01 15:20 32.45468 -80.85951 11659 ft 401 kts 33°
2026-05-01 15:20 32.47738 -80.83915 11875 ft 417 kts 33°
2026-05-01 15:20 32.50086 -80.81806 12143 ft 429 kts 33°
2026-05-01 15:21 32.52498 -80.79633 12643 ft 436 kts 33°
2026-05-01 15:21 32.54919 -80.77449 13128 ft 442 kts 33°
2026-05-01 15:21 32.57354 -80.75251 13663 ft 447 kts 33°
2026-05-01 15:21 32.59845 -80.73000 14264 ft 450 kts 32°
2026-05-01 15:22 32.64862 -80.68463 15473 ft 456 kts 32°
2026-05-01 15:22 32.67393 -80.66171 15984 ft 461 kts 31°
2026-05-01 15:22 32.69939 -80.63864 16583 ft 462 kts 31°
2026-05-01 15:23 32.72455 -80.61489 17045 ft 470 kts 33°
2026-05-01 15:23 32.74918 -80.58928 17556 ft 475 kts 35°
2026-05-01 15:23 32.77354 -80.56233 18028 ft 480 kts 36°
2026-05-01 15:23 32.79776 -80.53474 18513 ft 484 kts 37°
2026-05-01 15:24 32.82209 -80.50686 18853 ft 491 kts 37°
2026-05-01 15:24 32.84689 -80.47847 19335 ft 494 kts 37°
2026-05-01 15:24 32.87176 -80.45023 19686 ft 499 kts 37°
2026-05-01 15:24 32.89685 -80.42194 20089 ft 504 kts 36°
2026-05-01 15:25 32.92250 -80.39314 20564 ft 506 kts 36°
2026-05-01 15:25 32.94799 -80.36460 20867 ft 512 kts 36°
2026-05-01 15:25 32.97403 -80.33546 21346 ft 514 kts 36°
2026-05-01 15:25 33.00044 -80.30594 21628 ft 519 kts 36°
2026-05-01 15:26 33.02669 -80.27657 22031 ft 522 kts 36°
2026-05-01 15:26 33.05328 -80.24681 22309 ft 527 kts 36°
2026-05-01 15:26 33.07985 -80.21703 22666 ft 530 kts 36°
2026-05-01 15:26 33.10719 -80.18638 22951 ft 535 kts 36°
2026-05-01 15:27 33.13405 -80.15618 23404 ft 536 kts 36°
2026-05-01 15:27 33.16154 -80.12527 23781 ft 539 kts 36°
2026-05-01 15:27 33.18846 -80.09493 24154 ft 541 kts 36°
2026-05-01 15:28 33.24379 -80.03256 24801 ft 548 kts 36°
2026-05-01 15:28 33.27108 -80.00174 25448 ft 544 kts 36°
2026-05-01 15:28 33.29849 -79.97066 26165 ft 539 kts 36°
2026-05-01 15:29 33.35265 -79.90936 27130 ft 537 kts 35°
2026-05-01 15:29 33.37985 -79.87856 27603 ft 536 kts 35°
2026-05-01 15:29 33.43365 -79.81756 28603 ft 533 kts 35°
2026-05-01 15:30 33.48710 -79.75685 29535 ft 530 kts 35°
2026-05-01 15:31 33.59370 -79.63553 31119 ft 529 kts 34°
2026-05-01 15:31 33.64690 -79.57481 32017 ft 524 kts 33°
2026-05-01 15:32 33.69875 -79.51525 32952 ft 516 kts 33°
2026-05-01 15:32 33.75097 -79.45550 32991 ft 523 kts 33°
2026-05-01 15:34 33.90884 -79.27413 33005 ft 526 kts 33°